2024-153F (60750 NORAD) Tracking and Keplerian Element Data

This shows tracking and keplerian element data for the satellite.

Feedback or suggestion? Click here.




ElementValue
Catalog60750
Name2024-153F
Epoch Orbit674
Epoch Day286.84017776
Epoch Year2024
RAAN44.1555
Inclination97.6153
Eccentricity0.0016922
Argument of Perigee138.7906
Mean Anonmoly221.4605
Mean Motion15.12249969
Decay Rate0.00030846
L11 60750U 24153F 24286.84017776 .00030846 00000+0 17758-2 0 9995
L22 60750 97.6153 44.1555 0016922 138.7906 221.4605 15.12249969 6744



Live tracking and technical data element details for 2024-153F (NORAD 60750). 2024-153F can be tracked NOW for your location showing map with azimuth and elevation plus other details from your city location.







IsCatalogInMostPopularTable: catalog: 60750, numindb: 5
Update: records affected: 1



GetName: 60750 2024-153F

Hit Count: updated at: Wed, 04 Dec 2024 18:20:10 GMT